Location: Unspecified
(38.0989°N, 0.6729°W)
Time: 11:33:44
(UTC+02:00)

Tiangong - Visible Passes

Search period start: 31 March 2023 00:00
Search period end: 10 April 2023 00:00
Orbit: 373 x 380 km, 41.5° (Epoch: 30 March)

Date Brightness Start Highest point End Pass type
(mag) Time Alt. Az. Time Alt. Az. Time Alt. Az.
07 Apr -0.1 06:56:52 10° SSW 06:59:21 22° SSE 07:01:50 10° E visible
08 Apr 0.5 05:56:17 12° SSE 05:56:39 12° SE 05:57:51 10° ESE visible
09 Apr -1.1 06:28:22 20° SSW 06:29:56 35° SSE 06:32:49 10° E visible
